Regional Weather Roundup
Issued by NWS Mt. Holly, NJ

Home | Current Version | Previous Version | Text Only | Print | Product List | Glossary On
Versions: 1 2 3 4 5 6 7 8 9 10 11 12 13 14 15 16 17 18 19 20 21 22 23 24 25 26 27 28 29 30 31 32 33 34 35 36 37 38 39 40 41 42 43 44 45 46 47 48 49 50
000
ASUS41 KPHI 301511
RWRPHI

REGIONAL WEATHER ROUNDUP
NATIONAL WEATHER SERVICE MOUNT HOLLY NJ
1100 AM EDT SAT MAY 30 2015

NOTE:  "FAIR" INDICATES FEW OR NO CLOUDS BELOW 12,000 FEET WITH NO
SIGNIFICANT WEATHER AND/OR OBSTRUCTIONS TO VISIBILITY.

 * = STATION DOES NOT REPORT PRECIPITATION (E.G. RAIN, SNOW, ETC.)
        OR FOG.

NJZ015>026-301600-
SOUTHERN NEW JERSEY

CITY           SKY/WX    TMP DP  RH WIND       PRES   REMARKS
POMONA         PTSUNNY   82  67  60 S10       30.21F
RIO GRANDE*    MOSUNNY   79  64  61 SE10      30.24S
MILLVILLE      MOSUNNY   78  68  71 VRB6      30.21F
WRIGHTSTOWN    PTSUNNY   80  68  65 SW10      30.17F
MOUNT HOLLY    MOSUNNY   80  68  66 SW8       30.19F
TRENTON        CLOUDY    78  67  68 S9        30.19F

$$
NJZ001>014-301600-
NORTHERN NEW JERSEY

CITY           SKY/WX    TMP DP  RH WIND       PRES   REMARKS
SUSSEX         MOSUNNY   77  65  66 VRB7      30.18F
ANDOVER*         N/A     75  66  73 VRB6      30.19F
MORRISTOWN     CLOUDY    77  70  78 SW10      30.20F
NEWARK         MOSUNNY   81  66  60 SW10      30.18F
TETERBORO      MOSUNNY   79  64  60 SW10      30.17F
CALDWELL       PTSUNNY   76  65  68 VRB7      30.19F
SOMERVILLE     PTSUNNY   76  67  73 S6        30.18S
ALLAIRE*       PTSUNNY   79  64  61 W8        30.20S
TOMS RIVER*    MOSUNNY  N/A N/A N/A SW13G18   30.20F

$$
PAZ043-044-047-054-055-060>062-066>071-301600-
EASTERN PENNSYLVANIA

CITY           SKY/WX    TMP DP  RH WIND       PRES   REMARKS
PHILADELPHIA   PTSUNNY   79  67  66 SW12      30.20F
NORTH PHILA    MOSUNNY   80  65  59 SW12      30.21F
BLUE BELL      MOSUNNY   81  70  69 S6        30.19F
DOYLESTOWN     MOSUNNY   75  66  73 SW7       30.19F
QUAKERTOWN*    PTSUNNY   77  66  69 SW7       30.20F
POTTSTOWN      MOSUNNY   77  67  71 SW8       30.20F
LANCASTER      SUNNY     81  65  58 S6        30.17F
COATESVILLE    SUNNY     77  68  73 S6        30.20F
READING        MOSUNNY   81  65  58 S7        30.16F
ALLENTOWN      MOSUNNY   81  66  61 SE10      30.18F
MOUNT POCONO   PTSUNNY   72  63  73 SW12      30.22S
HAZLETON       PTSUNNY   75  64  69 S8G21     30.22F
WILKES BARRE   CLOUDY    80  65  59 S10       30.15F

$$
DEZALL-MDZ008-012-015-019-020-301600-
DELAWARE AND EASTERN MARYLAND

CITY           SKY/WX    TMP DP  RH WIND       PRES   REMARKS
WILMINGTON     PTSUNNY   78  70  76 SE10      30.20F
DOVER          MOSUNNY   81  72  72 S12       30.18F
GEORGETOWN     PTSUNNY   81  67  62 S12       30.22F
EASTON         MOSUNNY   82  70  65 SW7       30.23F
PATUXENT       MOSUNNY   81  67  62 S10       30.20F
OCEAN CITY     SUNNY     75  66  73 S7        30.24S
WALLOPS ISLAND MOSUNNY   79  70  74 S12       30.24S
CAMBRIDGE      MOSUNNY   79  64  61 S9G16     30.20F
SALISBURY      MOSUNNY   80  65  59 S10       30.22S

$$
PAZ001-021-NYZ056-072-MDZ011-DCZ001-301600-
OTHER NEARBY LOCATIONS

CITY           SKY/WX    TMP DP  RH WIND       PRES   REMARKS
HARRISBURG     MOSUNNY   81  67  62 VRB5      30.15F
STATE COLLEGE  SUNNY     79  64  61 SW14      30.14F
WILLIAMSPORT   MOSUNNY   80  67  64 SE8       30.11F
BINGHAMTON     MOSUNNY   75  65  70 SW10      30.13F
NEW YORK CITY  SUNNY     77  65  66 VRB5      30.21F
BALTIMORE      MOSUNNY   83  67  58 S7        30.17F
WASHINGTON DC  MOSUNNY   82  69  64 S13       30.18F

$$



USA.gov is the U.S. government's official web portal to all federal, state and local government web resources and services.